Moriarty, NM

12:03 PM MST on December 17, 2017 (GMT -0700)
Moriarty

Weather History for K0E0 - May, 2013

Change the Weather History Date:

Thursday, May 9, 2013

  Actual Average (KABQ) Record (KABQ)
Temperature  
Mean Temperature 53 °F -  
Max Temperature 69 °F 77 °F 91 °F (1934)
Min Temperature 37 °F 46 °F 34 °F (1930)
Degree Days  
Heating Degree Days 12    
Growing Degree Days 3 (Base 50)    
Moisture  
Dew Point 21 °F    
Average Humidity 27    
Maximum Humidity 63    
Minimum Humidity 13    
Precipitation  
Precipitation 0.00 in - - ()
Sea Level Pressure  
Sea Level Pressure 30.11 in    
Wind  
Wind Speed 5 mph (North)    
Max Wind Speed 21 mph    
Max Gust Speed 26 mph    
Visibility 10 miles    
Events Thunderstorm    
Averages and records for this station are not official NWS values.
T = Trace of Precipitation, MM = Missing Value Source: NWS Daily Summary

Daily Weather History Graph

Daily Weather History Graph

Search for Another Location

Airport or City:

Trip Planner

Search our weather history database for the weather conditions in past years. The results will help you decide how hot, cold, wet, or windy it might be!

Date:

Astronomy

May. 09, 2013 Rise Set
Actual Time 6:05 AM MDT 7:56 PM MDT
Civil Twilight 5:37 AM MDT 8:23 PM MDT
Nautical Twilight 5:04 AM MDT 8:57 PM MDT
Astronomical Twilight 4:28 AM MDT 9:33 PM MDT
Moon 5:50 AM MDT (5/9) 7:54 PM MDT (5/9)
Length of Visible Light 14h 46m
Length of Day
13h 51m
Waning Crescent, 0% of the Moon is Illuminated
May 9
Waning Crescent
May 9
New
May 17
First Quarter
May 24
Full
May 31
Last Quarter

Hourly Weather History & Observations

Time (MDT) Temp. Windchill Dew Point Humidity Pressure Visibility Wind Dir Wind Speed Gust Speed Precip Events Conditions
12:15 AM 45.9 °F 44.6 °F 14.5 °F 28% 30.08 in 10.0 mi NW 3.5 mph - N/A   Mostly Cloudy
12:55 AM 47.3 °F - 13.8 °F 26% 30.09 in 10.0 mi ENE 3.5 mph - N/A   Clear
1:55 AM 43.9 °F 41.3 °F 12.4 °F 28% 30.08 in 10.0 mi NE 4.6 mph - N/A   Clear
3:35 AM 39.4 °F 37.2 °F 11.8 °F 32% 30.08 in 10.0 mi NNE 3.5 mph - N/A   Clear
3:55 AM 39.2 °F - 10.9 °F 31% 30.09 in 10.0 mi Calm Calm - N/A   Clear
4:15 AM 38.3 °F - 10.4 °F 32% 30.08 in 10.0 mi Calm Calm - N/A   Clear
4:35 AM 37.4 °F - 9.7 °F 32% 30.09 in 10.0 mi Calm Calm - N/A   Clear
6:15 AM 37.8 °F - 11.1 °F 33% 30.11 in 10.0 mi Calm Calm - N/A   Scattered Clouds
6:55 AM 40.6 °F - 13.5 °F 33% 30.12 in 10.0 mi Calm Calm - N/A   Scattered Clouds
8:15 AM 50.4 °F - 18.7 °F 29% 30.13 in 10.0 mi Calm Calm - N/A   Clear
8:55 AM 55.0 °F - 21.2 °F 27% 30.14 in 10.0 mi Calm Calm - N/A   Clear
9:15 AM 57.6 °F - 21.9 °F 25% 30.14 in 10.0 mi Calm Calm - N/A   Clear
9:35 AM 58.6 °F - 22.1 °F 24% 30.14 in 10.0 mi Calm Calm - N/A   Clear
9:55 AM 61.0 °F - 22.1 °F 22% 30.13 in 10.0 mi SE 6.9 mph - N/A   Clear
10:15 AM 61.2 °F - 22.3 °F 22% 30.13 in 10.0 mi Calm Calm - N/A   Clear
10:35 AM 61.7 °F - 22.6 °F 22% 30.13 in 10.0 mi Calm Calm - N/A   Clear
10:55 AM 62.1 °F - 22.1 °F 22% 30.13 in 10.0 mi South 4.6 mph - N/A   Scattered Clouds
11:15 AM 62.1 °F - 21.9 °F 21% 30.13 in 10.0 mi Calm Calm - N/A   Scattered Clouds
11:35 AM 63.5 °F - 22.1 °F 21% 30.12 in 10.0 mi South 4.6 mph - N/A   Mostly Cloudy
11:55 AM 64.6 °F - 22.3 °F 20% 30.12 in 10.0 mi WSW 17.3 mph - N/A   Scattered Clouds
12:15 PM 65.3 °F - 22.1 °F 19% 30.11 in 10.0 mi North 3.5 mph - N/A   Scattered Clouds
12:35 PM 63.0 °F - 21.9 °F 21% 30.11 in 10.0 mi SSW 8.1 mph 20.7 mph N/A   Mostly Cloudy
12:55 PM 65.1 °F - 21.0 °F 19% 30.10 in 10.0 mi North 5.8 mph - N/A   Scattered Clouds
1:15 PM 63.9 °F - 23.2 °F 21% 30.10 in 10.0 mi NW 20.7 mph 26.5 mph N/A   Mostly Cloudy
1:55 PM 65.1 °F - 24.1 °F 21% 30.10 in 10.0 mi West 11.5 mph 17.3 mph N/A   Mostly Cloudy
2:15 PM 66.0 °F - 22.5 °F 19% 30.10 in 10.0 mi NNE 3.5 mph - N/A   Scattered Clouds
2:35 PM 68.4 °F - 20.8 °F 16% 30.08 in 10.0 mi Calm Calm - N/A   Clear
2:55 PM 68.9 °F - 20.8 °F 16% 30.08 in 10.0 mi West 13.8 mph 19.6 mph N/A   Scattered Clouds
3:15 PM 66.2 °F - 20.5 °F 17% 30.07 in 10.0 mi ESE 6.9 mph - N/A   Scattered Clouds
3:35 PM 68.5 °F - 20.1 °F 16% 30.06 in 10.0 mi Calm Calm - N/A   Clear
3:55 PM 69.6 °F - 19.6 °F 15% 30.05 in 10.0 mi South 6.9 mph - N/A   Clear
4:15 PM 68.0 °F - 18.9 °F 15% 30.05 in 10.0 mi WSW 6.9 mph - N/A   Scattered Clouds
4:35 PM 69.4 °F - 17.6 °F 14% 30.05 in 10.0 mi Calm Calm - N/A Thunderstorm Clear
4:55 PM 67.3 °F - 16.3 °F 14% 30.05 in 10.0 mi Calm Calm - N/A   Clear
5:15 PM 67.1 °F - 16.3 °F 14% 30.05 in 10.0 mi Calm Calm - N/A   Clear
5:35 PM 67.3 °F - 16.5 °F 14% 30.05 in 10.0 mi WSW 3.5 mph - N/A   Mostly Cloudy
5:55 PM 68.9 °F - 16.5 °F 13% 30.05 in 10.0 mi North 6.9 mph - N/A   Mostly Cloudy
6:15 PM 67.3 °F - 15.8 °F 14% 30.05 in 10.0 mi NNW 6.9 mph - N/A   Scattered Clouds
6:35 PM 67.1 °F - 16.7 °F 14% 30.05 in 10.0 mi NNW 6.9 mph - N/A   Scattered Clouds
6:55 PM 65.5 °F - 19.0 °F 17% 30.06 in 10.0 mi North 15.0 mph - N/A   Mostly Cloudy
7:15 PM 63.1 °F - 22.8 °F 21% 30.07 in 10.0 mi NNW 13.8 mph 19.6 mph N/A   Scattered Clouds
7:35 PM 62.1 °F - 23.5 °F 23% 30.08 in 10.0 mi North 16.1 mph 21.9 mph N/A Thunderstorm Clear
7:55 PM 60.8 °F - 23.7 °F 24% 30.10 in 10.0 mi North 16.1 mph 20.7 mph N/A   Scattered Clouds
8:15 PM 59.2 °F - 23.4 °F 25% 30.11 in 10.0 mi North 10.4 mph - N/A   Clear
8:35 PM 57.9 °F - 23.7 °F 27% 30.12 in 10.0 mi North 11.5 mph - N/A   Scattered Clouds
8:55 PM 57.4 °F - 23.4 °F 27% 30.13 in 10.0 mi NNE 6.9 mph - N/A Thunderstorm Mostly Cloudy
9:15 PM 57.4 °F - 28.2 °F 33% 30.14 in 10.0 mi NNE 9.2 mph - N/A Thunderstorm Mostly Cloudy
9:55 PM 54.1 °F - 32.2 °F 43% 30.17 in 10.0 mi NE 15.0 mph - N/A   Clear
10:15 PM 51.1 °F - 35.8 °F 56% 30.17 in 10.0 mi ENE 18.4 mph 24.2 mph N/A   Clear
10:35 PM 49.5 °F - 36.7 °F 61% 30.18 in 10.0 mi ENE 18.4 mph 23.0 mph N/A   Clear
10:55 PM 48.7 °F - 36.5 °F 63% 30.18 in 10.0 mi ENE 16.1 mph - N/A   Clear
11:15 PM 48.4 °F - 36.3 °F 63% 30.18 in 10.0 mi ENE 12.7 mph - N/A   Clear
11:35 PM 48.4 °F - 35.8 °F 62% 30.19 in 10.0 mi ENE 12.7 mph 19.6 mph N/A   Clear
11:55 PM 47.7 °F - 35.6 °F 63% 30.20 in 10.0 mi WNW 9.2 mph - N/A   Clear